STARLINK-32737 (62444 NORAD) Tracking and Keplerian Element Data

This shows tracking and keplerian element data for the satellite.

Feedback or suggestion? Click here.




ElementValue
Catalog62444
NameSTARLINK-32737
Epoch Orbit680
Epoch Day35.17301061
Epoch Year2025
RAAN34.9062
Inclination53.1632
Eccentricity0.0001634
Argument of Perigee85.5836
Mean Anonmoly274.5356
Mean Motion15.3961624
Decay Rate-2.7E-06
L11 62444U 24251N 25035.17301061 -.00000270 00000+0 32355-5 0 9990
L22 62444 53.1632 34.9062 0001634 85.5836 274.5356 15.39616240 6808



Live tracking and technical data element details for STARLINK-32737 (NORAD 62444). STARLINK-32737 can be tracked NOW for your location showing map with azimuth and elevation plus other details from your city location.







IsCatalogInMostPopularTable: catalog: 62444, numindb: 23
Update: records affected: 1



GetName: 62444 STARLINK-32737

Hit Count: updated at: Mon, 19 May 2025 01:43:25 GMT